Hauptseite
METAR-TAF:

METAR-TAF

Flughäfen :

Bohrplattform

K13-a, Niederlande

Breite: 53-13-04N, Länge: 3-13-13E, Höhe: 31 m

Beobachtung

Neuester Wetterbericht von vor 12 Minuten, um 15:55 UTC
Wind 26 kt aus Süd/Südwest
Temperatur 13°C
Luftfeuchtigkeit 77%
Luftdruck 1022 hPa

METAR: EHJR 141555Z AUTO 20026KT //// // ///////// 13/09 Q1022 RE// W///H17

Zeit: 17:07 (16:07 UTC)


TAF: fehlend

Wetterbeobachtungen und Prognosen von mehr als 4000 Flughäfen (METAR und TAF Bericht).

Die verfügbaren Stationen werden durch gelbe und rote Markierungen auf der Karte dargestellt.

Führen Sie die Maus auf sie, um den Namen der Station zu sehen.

Darauf klicken, um die Beobachtung von Wetterbeobachtungen und Prognosen zu sehen.

Um die Karte zu ändern : klicken Sie auf den grünen Tasten mit einem schwarzen Kreuz Zum Vergrößern, auf den grünen Button mit einem Gedankenstrich zu verkleinern, oder auf die grünen Pfeile für benachbarte Karten.


METAR-TAF: